Home   Weather   Rafsanjan   Past weeks

Flag for Iran Past Weather in Rafsanjan, Iran — Yesterday and Last 2 Weeks

Now
70 °F

Sunny.


Feels Like: 70 °F
Forecast: 60 / 95 °F
Wind: 5 mph from Southeast

Location: Kerman Airport

Current Time: Aug 31, 2016 at 8:54:47 AM

Latest Report: Aug 31, 2016 at 8:30 AM


Visibility: 10 mi

Pressure: 30.12 "Hg (25.26 "Hg at 1515m altitude)

Humidity: 18%

Dew Point: 25 °F

Location of RafsanjanLocation

Past Weather in Rafsanjan — Graph

°F

Rafsanjan Temperature Yesterday

Maximum temperature yesterday: 90 °F (at 2:30 PM)
Minimum temperature yesterday: 54 °F (at 5:30 AM)
Average temperature yesterday: 74 °F

High & Low Weather Summary for the Past Weeks

 TemperatureHumidityPressure
High90 °F (Aug 18, 4:30 PM)27% (Aug 17, 5:30 AM)30.24 "Hg (Aug 17, 5:30 AM)
Low52 °F (Aug 20, 6:30 AM)1% (Aug 27, 6:30 PM)29.92 "Hg (Aug 17, 5:30 PM)
Average74 °F11%30.10 "Hg
* Reported Aug 16 7:30 AM — Aug 31 7:30 AM, Rafsanjan, Weather by CustomWeather, © 2016

Note: Actual official high and low records may vary slightly from our data, if they occured in-between our weather recording intervals... More about our weather records

Advertising

Rafsanjan Weather History for the Previous 24 Hours

Scroll right to see more
 ConditionsComfort  
Time TempWeatherWind HumidityBarometerVisibility
7:30 AM
Wed, Aug 31
61 °FClear.5 mph22%30.12 "Hg10 mi
6:30 AM57 °FClear.No wind23%30.09 "Hg10 mi
5:30 AM57 °FClear.2 mph21%30.07 "Hg10 mi
4:30 AM57 °FClear.2 mph23%30.07 "Hg10 mi
3:30 AM57 °FClear.No wind23%30.07 "Hg10 mi
2:30 AM63 °FClear.No wind19%30.09 "Hg10 mi
1:30 AM70 °FClear.No wind16%30.12 "Hg10 mi
12:30 AM70 °FClear.No wind16%30.12 "Hg10 mi
11:30 PM
Tue, Aug 30
70 °FClear.5 mph16%30.12 "Hg10 mi
10:30 PM73 °FClear.5 mph15%30.12 "Hg10 mi
9:30 PM72 °FClear.5 mph13%30.15 "Hg10 mi
8:30 PM79 °FSunny.7 mph10%30.12 "Hg10 mi
7:30 PM82 °FSunny.12 mph9%30.09 "Hg10 mi
6:30 PM86 °FSunny.16 mph7%30.09 "Hg10 mi
5:30 PM88 °FSunny.14 mph5%30.09 "Hg10 mi
4:30 PM90 °FSunny.18 mph4%30.09 "Hg10 mi
3:30 PM90 °FSunny.16 mph5%30.09 "Hg10 mi
2:30 PM90 °FSunny.18 mph6%30.09 "Hg10 mi
1:30 PM88 °FSunny.12 mph7%30.12 "Hg10 mi
12:30 PM86 °FSunny.16 mph8%30.15 "Hg10 mi
11:30 AM84 °FSunny.7 mph9%30.15 "Hg10 mi
10:30 AM82 °FSunny.5 mph9%30.18 "Hg10 mi
9:30 AM77 °FSunny.5 mph11%30.18 "Hg10 mi
8:30 AM66 °FSunny.5 mph12%30.18 "Hg10 mi
Weather by CustomWeather, © 2016

See weather overviewHow to use our weather pages